Date String (YYYY-MM-DD hh:mm:ss) UTC,Instrument flags,absolute air pressure of the measurement (hPa),sample flow rate (lpm),inlet stack bypass flow (lpm),air temperature of the measurement (°C),ambient temperature measured by the external sensor (°C),aerosol sample conditioner tube jacket temperature (°C),OPC LED temperature (°C),internal box temperature (°C),relative humidity of the measurement (%),span deviation,mass concentration of particles derived from Lorenz-Mie calculation of OPC scattering (μg/m³),mass concentration of particles derived from Lorenz-Mie calculation of OPC scattering (μg/m³),mass concentration of particles derived from Lorenz-Mie calculation of OPC scattering (μg/m³)
DateTimeUTC,F1_M11,P_M11,Q1_M11,Q2_M11,T1_M11,T2_M11,T3_M11,T4_M11,T5_M11,U1_M11,ZSPAN_M11,X0_M11,X2_M11,X1_M11
2023-12-21 10:00:00,SystemResetWarning,0830.1,5.00,000.00,024.1,023.3,000.0,032.4,025.5,13.3,0000.0,0008.34,0003.32,0002.54
2023-12-21 10:01:00,SystemResetWarning,0830.2,5.00,000.00,024.1,023.2,000.0,032.4,025.5,13.4,0000.0,0008.43,0003.32,0002.53
2023-12-21 10:02:00,SystemResetWarning,0830.2,4.99,000.00,024.1,023.2,000.0,032.4,025.5,13.6,0000.0,0008.40,0003.25,0002.52
2023-12-21 10:03:00,SystemResetWarning,0830.2,5.01,000.00,024.1,023.2,000.0,032.4,025.5,13.4,0000.0,0008.97,0003.26,0002.51
2023-12-21 10:04:00,SystemResetWarning,0830.1,5.01,000.00,024.1,023.2,000.0,032.4,025.5,13.4,0000.0,0009.05,0003.28,0002.51
2023-12-21 10:05:00,SystemResetWarning,0830.1,5.00,000.00,024.1,023.2,000.0,032.4,025.5,13.3,0000.0,0009.35,0003.27,0002.49
2023-12-21 10:06:00,SystemResetWarning,0830.1,4.99,000.00,024.1,023.2,000.0,032.4,025.5,13.4,0000.0,0009.46,0003.24,0002.47
2023-12-21 10:07:00,SystemResetWarning,0830.1,5.00,000.00,024.1,023.2,000.0,032.4,025.5,13.3,0000.0,0009.59,0003.20,0002.45
2023-12-21 10:08:00,SystemResetWarning,0830.2,5.02,000.00,024.1,023.2,000.0,032.4,025.5,13.4,0000.0,0009.59,0003.18,0002.41
2023-12-21 10:09:00,SystemResetWarning,0830.2,5.00,000.00,024.1,023.2,000.0,032.4,025.5,13.5,0000.0,0009.11,0003.13,0002.37
2023-12-21 10:10:00,SystemResetWarning,0830.2,4.98,000.00,024.1,023.2,000.0,032.4,025.5,13.9,0000.0,0009.24,0003.12,0002.36
2023-12-21 10:11:00,SystemResetWarning,0830.2,5.00,000.00,024.1,023.2,000.0,032.4,025.5,13.9,0000.0,0009.27,0003.12,0002.36
2023-12-21 10:12:00,SystemResetWarning,0830.2,5.01,000.00,024.1,023.2,000.0,032.4,025.5,13.6,0000.0,0009.09,0003.10,0002.34
2023-12-21 10:13:00,SystemResetWarning,0830.3,5.01,000.00,024.1,023.2,000.0,032.4,025.5,13.5,0000.0,0008.95,0003.10,0002.31
2023-12-21 10:14:00,SystemResetWarning,0830.3,5.00,000.00,024.1,023.2,000.0,032.4,025.5,13.6,0000.0,0007.66,0003.03,0002.31
2023-12-21 10:15:00,SystemResetWarning,0830.2,5.00,000.00,024.1,023.2,000.0,032.4,025.5,13.7,0000.0,0007.25,0002.92,0002.26
2023-12-21 10:16:00,SystemResetWarning,0830.2,5.00,000.00,024.1,023.2,000.0,032.4,025.5,13.7,0000.0,0006.98,0002.87,0002.21
2023-12-21 10:17:00,SystemResetWarning,0830.3,4.99,000.00,024.1,023.2,000.0,032.4,025.5,13.9,0000.0,0006.71,0002.83,0002.18
2023-12-21 10:18:00,SystemResetWarning,0830.3,4.99,000.00,024.1,023.3,000.0,032.4,025.5,13.8,0000.0,0007.09,0002.90,0002.18
2023-12-21 10:19:00,SystemResetWarning,0830.2,5.00,000.00,024.1,023.3,000.0,032.4,025.5,13.8,0000.0,0007.42,0002.93,0002.18
2023-12-21 10:20:00,SystemResetWarning,0830.2,5.00,000.00,024.1,023.3,000.0,032.4,025.5,13.7,0000.0,0007.36,0002.88,0002.16
2023-12-21 10:21:00,SystemResetWarning,0830.2,5.00,000.00,024.1,023.3,000.0,032.4,025.5,13.5,0000.0,0006.68,0002.85,0002.12
2023-12-21 10:22:00,SystemResetWarning,0830.2,5.00,000.00,024.1,023.3,000.0,032.4,025.5,13.5,0000.0,0007.00,0002.79,0002.07
2023-12-21 10:23:00,SystemResetWarning,0830.2,5.00,000.00,024.1,023.3,000.0,032.4,025.5,13.4,0000.0,0007.05,0002.72,0002.02
2023-12-21 10:24:00,SystemResetWarning,0830.2,4.99,000.00,024.1,023.2,000.0,032.4,025.5,13.5,0000.0,0007.25,0002.66,0001.98
2023-12-21 10:25:00,SystemResetWarning,0830.2,4.99,000.00,024.1,023.3,000.0,032.4,025.5,13.6,0000.0,0007.56,0002.62,0001.92
2023-12-21 10:26:00,SystemResetWarning,0830.2,5.00,000.00,024.1,023.3,000.0,032.4,025.5,13.6,0000.0,0007.57,0002.62,0001.89
2023-12-21 10:27:00,SystemResetWarning,0830.2,5.00,000.00,024.1,023.2,000.0,032.4,025.5,13.7,0000.0,0007.36,0002.59,0001.87
2023-12-21 10:28:00,SystemResetWarning,0830.2,5.00,000.00,024.1,023.2,000.0,032.4,025.5,13.7,0000.0,0007.77,0002.54,0001.84
2023-12-21 10:29:00,SystemResetWarning,0830.3,5.00,000.00,024.1,023.3,000.0,032.4,025.5,13.6,0000.0,0007.47,0002.49,0001.80
2023-12-21 10:30:00,SystemResetWarning,0830.3,5.00,000.00,024.1,023.3,000.0,032.4,025.5,13.6,0000.0,0007.01,0002.41,0001.78
2023-12-21 10:31:00,SystemResetWarning,0830.3,5.00,000.00,024.1,023.3,000.0,032.4,025.5,13.6,0000.0,0007.66,0002.39,0001.74
2023-12-21 10:32:00,SystemResetWarning,0830.2,5.00,000.00,024.1,023.3,000.0,032.4,025.5,13.6,0000.0,0007.59,0002.33,0001.72
2023-12-21 10:33:00,SystemResetWarning,0830.3,5.00,000.00,024.1,023.3,000.0,032.4,025.5,13.6,0000.0,0007.51,0002.30,0001.69
2023-12-21 10:34:00,SystemResetWarning,0830.3,5.01,000.00,024.1,023.2,000.0,032.4,025.5,13.6,0000.0,0007.38,0002.25,0001.67
2023-12-21 10:35:00,SystemResetWarning,0830.3,5.00,000.00,024.1,023.2,000.0,032.4,025.5,13.6,0000.0,0007.15,0002.22,0001.67
2023-12-21 10:36:00,SystemResetWarning,0830.3,5.00,000.00,024.1,023.2,000.0,032.4,025.5,13.7,0000.0,0006.51,0002.20,0001.67
2023-12-21 10:37:00,SystemResetWarning,0830.3,5.00,000.00,024.2,023.3,000.0,032.4,025.5,13.7,0000.0,0006.49,0002.19,0001.66
2023-12-21 10:38:00,SystemResetWarning,0830.3,5.00,000.00,024.2,023.3,000.0,032.4,025.5,13.6,0000.0,0006.61,0002.22,0001.66
2023-12-21 10:39:00,SystemResetWarning,0830.3,5.00,000.00,024.2,023.3,000.0,032.5,025.5,13.5,0000.0,0005.70,0002.21,0001.66
2023-12-21 10:40:00,SystemResetWarning,0830.3,5.00,000.00,024.2,023.3,000.0,032.5,025.5,13.6,0000.0,0005.08,0002.17,0001.64
2023-12-21 10:41:00,SystemResetWarning,0830.3,5.00,000.00,024.1,023.3,000.0,032.5,025.5,13.7,0000.0,0005.01,0002.17,0001.62
2023-12-21 10:42:00,SystemResetWarning,0830.3,5.00,000.00,024.2,023.3,000.0,032.5,025.5,13.7,0000.0,0004.20,0002.20,0001.62
2023-12-21 10:43:00,SystemResetWarning,0830.3,5.00,000.00,024.2,023.3,000.0,032.5,025.6,13.6,0000.0,0004.27,0002.23,0001.61
2023-12-21 10:44:00,SystemResetWarning,0830.3,5.00,000.00,024.2,023.3,000.0,032.5,025.5,14.0,0000.0,0004.10,0002.26,0001.61
2023-12-21 10:45:00,SystemResetWarning,0830.3,5.00,000.00,024.1,023.3,000.0,032.5,025.5,14.0,0000.0,0004.42,0002.25,0001.61
2023-12-21 10:46:00,SystemResetWarning,0830.3,5.00,000.00,024.1,023.3,000.0,032.5,025.5,14.0,0000.0,0004.52,0002.23,0001.61
2023-12-21 10:47:00,SystemResetWarning,0830.3,5.00,000.00,024.1,023.3,000.0,032.5,025.5,13.9,0000.0,0005.20,0002.21,0001.61
2023-12-21 10:48:00,SystemResetWarning,0830.3,4.99,000.00,024.1,023.2,000.0,032.5,025.4,13.8,0000.0,0005.16,0002.19,0001.61
2023-12-21 10:49:00,SystemResetWarning,0830.3,5.00,000.00,024.1,023.2,000.0,032.5,025.4,13.8,0000.0,0005.46,0002.19,0001.60
2023-12-21 10:50:00,SystemResetWarning,0830.3,5.00,000.00,024.1,023.2,000.0,032.4,025.4,13.7,0000.0,0005.97,0002.26,0001.62
2023-12-21 10:51:00,SystemResetWarning,0830.3,5.00,000.00,024.1,023.2,000.0,032.4,025.4,13.7,0000.0,0007.13,0002.30,0001.65
2023-12-21 10:52:00,SystemResetWarning,0830.3,5.00,000.00,024.1,023.2,000.0,032.4,025.4,13.6,0000.0,0007.68,0002.27,0001.66
2023-12-21 10:53:00,SystemResetWarning,0830.4,5.00,000.00,024.1,023.2,000.0,032.4,025.5,13.5,0000.0,0007.71,0002.26,0001.67
2023-12-21 10:54:00,SystemResetWarning,0830.5,5.00,000.00,024.1,023.2,000.0,032.4,025.5,13.8,0000.0,0008.85,0002.24,0001.69
2023-12-21 10:55:00,SystemResetWarning,0830.4,5.00,000.00,024.1,023.2,000.0,032.4,025.4,13.8,0000.0,0008.97,0002.22,0001.70
2023-12-21 10:56:00,SystemResetWarning,0830.4,5.00,000.00,024.1,023.2,000.0,032.4,025.3,13.8,0000.0,0008.65,0002.26,0001.70
2023-12-21 10:57:00,SystemResetWarning,0830.4,5.00,000.00,024.0,023.2,000.0,032.4,025.2,13.7,0000.0,0008.61,0002.30,0001.71
2023-12-21 10:58:00,SystemResetWarning,0830.4,5.00,000.00,024.0,023.1,000.0,032.4,025.2,13.8,0000.0,0008.30,0002.36,0001.71
2023-12-21 10:59:00,SystemResetWarning,0830.4,4.99,000.00,024.0,023.1,000.0,032.4,025.2,13.9,0000.0,0008.49,0002.38,0001.71
